Retour au catalogue

ONEWEB-0699

ActifCommunicationsPO
NORAD 61605·PAYLOAD·🇬🇧 United Kingdom

Lancé Oct 20, 2024 depuis Vandenberg Space Force Base

Loading…

Prochains Passages (prochaines 24 heures)

TLE

FraisSource: CelesTrak SupGP

Époque: Sep 14, 2026, 23:01 UTC

1 61605C 24188M   26257.95921713 -.00001424  00000+0 -40828-2 0  2573
2 61605  87.8916  18.3924 0001273  82.0357  30.7498 13.10378095    13

Suivez ONEWEB-0699 en temps réel avec AllMySat

Download on the App Store